Вернуться в каталог

KUIPER-00155

АктивенСвязьLEO
NORAD 65774·PAYLOAD·🇺🇸 United States

Запущен Sep 25, 2025 с Cape Canaveral Space Force Station

Loading…

Ближайшие Пролёты (ближайшие 24 часа)

TLE

СвежийSource: CelesTrak SupGP

Эпоха: Sep 14, 2026, 22:50 UTC

1 65774C 25217N   26257.95185185  .00001855  00000+0  24282-3 0  2576
2 65774  51.9010 241.2364 0000681  76.7126 291.0171 14.79923529    16

Отслеживайте KUIPER-00155 в реальном времени с AllMySat

Download on the App Store